Home   Weather   Prenzlau   Past weeks

Flag for Germany Past Weather in Prenzlau, Brandenburg, Germany — Yesterday and Last 2 Weeks

Now
41 °F

Scattered clouds.


Feels Like: 36 °F
Forecast: 33 / 51 °F
Wind: 7 mph from Southwest

Location: Szczecin Airport

Current Time: Apr 25, 2017 at 8:54:41 pm

Latest Report: Apr 25, 2017 at 8:00 pm


Visibility: N/A

Pressure: 29.68 "Hg

Humidity: 87%

Dew Point: 37 °F

Location of PrenzlauLocation

Past Weather in Prenzlau — Graph

°F

Prenzlau Temperature Yesterday

Maximum temperature yesterday: 52 °F (at 4:00 pm)
Minimum temperature yesterday: 34 °F (at 4:00 am)
Average temperature yesterday: 43 °F

High & Low Weather Summary for the Past Weeks

 TemperatureHumidityPressure
High55 °F (Apr 21, 5:30 pm)100% (Apr 12, 5:30 am)30.57 "Hg (Apr 12, 5:30 am)
Low23 °F (Apr 20, 5:30 am)37% (Apr 20, 3:30 pm)29.56 "Hg (Apr 25, 5:30 am)
Average42 °F76%29.98 "Hg
* Reported Apr 10 7:00 pm — Apr 25 7:30 pm, Prenzlau, Weather by CustomWeather, © 2017

Note: Actual official high and low records may vary slightly from our data, if they occured in-between our weather recording intervals... More about our weather records

Advertising

Prenzlau Weather History for the Previous 24 Hours

Scroll right to see more
 ConditionsComfort  
Time TempWeatherWind HumidityBarometerVisibility
7:30 pm
Tue, Apr 25
41 °FScattered clouds.7 mph87%29.68 "HgN/A
7:00 pm43 °FPartly sunny.7 mph81%29.65 "Hg5 mi
6:30 pm43 °FPassing clouds.9 mph76%29.65 "Hg5 mi
6:00 pm43 °FPassing clouds.10 mph81%29.65 "HgN/A
5:30 pm41 °FPassing clouds.10 mph93%29.65 "HgN/A
5:00 pm37 °FSprinkles. Broken clouds.18 mph93%29.65 "Hg4 mi
4:30 pm45 °FPassing clouds.12 mph71%29.62 "HgN/A
4:00 pm45 °FScattered clouds.8 mph81%29.59 "HgN/A
3:30 pm43 °FRain showers. Broken clouds.8 mph87%29.62 "Hg4 mi
3:00 pm43 °FSprinkles. Broken clouds.8 mph87%29.59 "HgN/A
2:30 pm43 °FMore clouds than sun.9 mph87%29.62 "HgN/A
2:00 pm39 °FDrizzle. Fog.3 mph93%29.62 "Hg2 mi
1:30 pm39 °FDrizzle. Mostly cloudy.8 mph93%29.62 "HgN/A
1:00 pm39 °FMore clouds than sun.6 mph93%29.59 "HgN/A
12:30 pm39 °FBroken clouds.5 mph93%29.59 "HgN/A
12:00 pm39 °FLight rain. Mostly cloudy.5 mph87%29.59 "HgN/A
11:30 am39 °FLight rain. Low clouds.1 mph93%29.59 "HgN/A
11:00 am37 °FLight rain. Mostly cloudy.5 mph93%29.56 "HgN/A
10:30 am37 °FLight rain. More clouds than sun.3 mph93%29.56 "HgN/A
10:00 am37 °FLight rain. Mostly cloudy.6 mph93%29.56 "Hg4 mi
9:30 am37 °FLight rain. Mostly cloudy.6 mph93%29.56 "HgN/A
9:00 am36 °FLight rain. Low clouds.5 mph100%29.56 "HgN/A
8:30 am36 °FLight rain. Broken clouds.5 mph100%29.56 "HgN/A
8:00 am36 °FLight rain. Broken clouds.7 mph100%29.56 "HgN/A
7:30 am37 °FLight rain. Mostly cloudy.8 mph93%29.56 "HgN/A
7:00 am37 °FLight rain. Broken clouds.8 mph100%29.56 "HgN/A
6:30 am39 °FLight rain. Partly sunny.8 mph100%29.56 "Hg5 mi
6:00 am39 °FLight rain. Partly sunny.7 mph100%29.56 "Hg5 mi
5:30 am41 °FLight rain. Passing clouds.6 mph100%29.56 "Hg4 mi
5:00 am41 °FLight rain. Fog.1 mph100%29.59 "Hg3 mi
4:30 am41 °FLight rain. Fog.3 mph100%29.59 "Hg3 mi
4:00 am41 °FLight rain. Passing clouds.3 mph100%29.59 "Hg4 mi
3:00 am43 °FLight rain. Passing clouds.1 mph93%29.62 "Hg5 mi
2:30 am43 °FLight rain. Partly cloudy.3 mph93%29.65 "Hg5 mi
2:00 am43 °FLight rain. Passing clouds.3 mph93%29.68 "Hg4 mi
1:30 am43 °FLight rain. Passing clouds.3 mph93%29.68 "Hg5 mi
1:00 am43 °FLight rain. Partly cloudy.3 mph93%29.68 "Hg5 mi
12:30 am43 °FLight rain. Partly cloudy.7 mph93%29.68 "Hg4 mi
12:00 am45 °FLight rain. Passing clouds.7 mph87%29.68 "HgN/A
11:30 pm
Mon, Apr 24
45 °FLight rain. Partly cloudy.8 mph87%29.71 "HgN/A
11:00 pm46 °FLight rain. Partly cloudy.12 mph82%29.71 "HgN/A
10:30 pm48 °FLight rain. Passing clouds.15 mph76%29.71 "HgN/A
10:00 pm50 °FLight rain. Passing clouds.10 mph62%29.71 "HgN/A
9:30 pm50 °FPassing clouds.9 mph62%29.71 "HgN/A
9:00 pm52 °FPassing clouds.8 mph54%29.71 "HgN/A
8:30 pm52 °FPassing clouds.9 mph54%29.71 "HgN/A
8:00 pm52 °FSunny.8 mph54%29.71 "Hg10 mi
Weather by CustomWeather, © 2017

See weather overviewHow to use our weather pages